TimeCDT,TemperatureF,Dew PointF,Humidity,Sea Level PressureIn,VisibilityMPH,Wind Direction,Wind SpeedMPH,Gust SpeedMPH,PrecipitationIn,Events,Conditions,WindDirDegrees,DateUTC
12:53 AM,75.0,64.0,69,29.91,10.0,SSE,5.8,-,N/A,,Clear,150,2013-09-07 05:53:00
1:53 AM,75.0,64.0,69,29.89,10.0,SSE,6.9,-,N/A,,Clear,150,2013-09-07 06:53:00
2:53 AM,75.0,63.0,66,29.88,10.0,SSE,4.6,-,N/A,,Clear,150,2013-09-07 07:53:00
3:53 AM,73.9,63.0,68,29.87,10.0,SE,5.8,-,N/A,,Overcast,140,2013-09-07 08:53:00
4:53 AM,73.9,62.1,66,29.86,10.0,SSE,4.6,-,N/A,,Mostly Cloudy,150,2013-09-07 09:53:00
5:53 AM,73.0,62.1,68,29.86,10.0,South,6.9,-,N/A,,Clear,180,2013-09-07 10:53:00
6:53 AM,72.0,62.1,71,29.87,10.0,SE,3.5,-,N/A,,Clear,130,2013-09-07 11:53:00
7:53 AM,73.9,62.1,66,29.88,10.0,SSE,4.6,-,N/A,,Clear,150,2013-09-07 12:53:00
8:53 AM,75.9,62.1,62,29.87,10.0,South,4.6,-,N/A,,Clear,190,2013-09-07 13:53:00
9:53 AM,79.0,63.0,58,29.88,10.0,SSW,4.6,-,N/A,,Clear,200,2013-09-07 14:53:00
10:53 AM,82.9,64.9,54,29.87,10.0,Calm,Calm,-,N/A,,Clear,0,2013-09-07 15:53:00
11:53 AM,86.0,66.9,53,29.87,10.0,WNW,4.6,-,N/A,,Clear,290,2013-09-07 16:53:00
12:53 PM,86.0,66.9,53,29.85,10.0,Calm,Calm,-,N/A,,Clear,0,2013-09-07 17:53:00
1:53 PM,90.0,68.0,48,29.84,10.0,Variable,4.6,-,N/A,,Clear,0,2013-09-07 18:53:00
2:53 PM,91.9,70.0,48,29.82,10.0,North,4.6,-,N/A,,Clear,350,2013-09-07 19:53:00
3:53 PM,93.9,70.0,46,29.83,10.0,NNE,4.6,-,N/A,,Clear,20,2013-09-07 20:53:00
4:53 PM,93.0,68.0,44,29.83,10.0,North,5.8,-,N/A,,Clear,10,2013-09-07 21:53:00
5:53 PM,91.9,69.1,47,29.84,10.0,North,4.6,-,N/A,,Clear,10,2013-09-07 22:53:00
6:53 PM,89.1,73.0,59,29.84,10.0,NW,4.6,-,N/A,,Mostly Cloudy,310,2013-09-07 23:53:00
7:53 PM,84.9,71.1,63,29.87,10.0,North,4.6,-,N/A,,Mostly Cloudy,360,2013-09-08 00:53:00
8:53 PM,84.9,68.0,57,29.88,10.0,ENE,4.6,-,N/A,,Mostly Cloudy,60,2013-09-08 01:53:00
9:53 PM,81.0,71.1,72,29.90,10.0,North,3.5,-,N/A,,Mostly Cloudy,350,2013-09-08 02:53:00
10:53 PM,81.0,66.9,62,29.91,10.0,NE,11.5,21.9,N/A,,Clear,50,2013-09-08 03:53:00
11:53 PM,79.0,66.9,66,29.92,10.0,NE,5.8,-,N/A,,Clear,40,2013-09-08 04:53:00